カタログに戻る

EXPLORER 38

RAE-A

運用中科学MEO
NORAD 3307·PAYLOAD·🇺🇸 United States

打ち上げ Jul 4, 1968 から Vandenberg Space Force Base

Loading…

次のパス (今後24時間)

TLE

最新Source: Space-Track

元期: Sep 13, 2026, 06:46 UTC

1 03307U 68055A   26256.28211613 -.00000010  00000-0  00000-0 0  9994
2 03307 120.8214 209.3744 0013767 287.3247  72.5850  6.42588908365099

AllMySatでEXPLORER 38をリアルタイム追跡

Download on the App Store